sat.trackr.live / text

‹ back to catalog

ONEWEB-0677

NORAD 56713 · 2023-068D

PAYLOAD ACTIVE UNKNOWN

§ Identity

Operator
Country
UK
Launch date
2023-05-20
Launch site
AFWTR
Launch vehicle
Mass (kg)
RCS (m²)

Purposes: comms

External: N2YO · Heavens-Above · Gunter

§ Orbital elements

Epoch: 2026-05-25T01:55:16.870368Z

Period
109.03 min
Inclination
87.9172°
Eccentricity
0.0002311
Mean motion
13.20772352 rev/d
Perigee alt
1,180.0 km
Apogee alt
1,183.5 km
Semi-major
7,559.9 km
B*
1.1373e-4
RAAN
279.0417°
Arg perigee
101.2836°
Mean anomaly
258.8557°
Rev number
14,675

§ Raw data

ONEWEB-06771 56713U 23068D   26145.08005637  .00000059  00000+0  11373-3 0  99992 56713  87.9172 279.0417 0002311 101.2836 258.8557 13.20772352146751

JSON: /api/v1/satellites/56713 · /tle

For live sub-satellite position, see the globe view (requires WebGL).

§ Visibility from observer

Set your observer location to see the next 7 days of passes ≥ 10°. The values pass through the URL so the page stays shareable.

No JS? Fill the form by hand. The geolocation button needs JavaScript.